{"data":{"norad_id":51892,"intl_designator":"2022-022AS","name":"STARLINK-3587","alt_names":[],"object_type":"PAYLOAD","status":"ACTIVE","operator":null,"country":"US","launch_date":"2022-03-03","launch_site_code":"AFETR","launch_vehicle":null,"mission":null,"orbit_class":"UNKNOWN","rcs_meters":null,"size_class":null,"mass_kg":null,"dimensions":null,"purposes":["comms"],"wikipedia_slug":null,"has_3d_model":false,"image_url":null,"decayed_at":null,"tle_current":{"epoch":"2026-09-20T01:37:01.269984Z","epoch_age_seconds":93588,"freshness":"FRESH","line1":"1 51892U 22022AS  26263.06737581  .00000313  00000+0  20409-4 0  9994","line2":"2 51892  53.1593 190.0875 0001292  90.9373 269.1777 15.34387687252817","mean_motion":15.34387687,"eccentricity":0.0001292,"inclination_deg":53.1593,"raan_deg":190.0875,"arg_perigee_deg":90.9373,"mean_anomaly_deg":269.1777,"bstar":2.0409e-5,"rev_number":25281,"period_min":93.848511181386,"perigee_km":461.85599599531,"apogee_km":463.62367857006,"semimajor_km":6840.8768372827,"source":"CELESTRAK","updated_at":"2026-09-20T09:00:39.973378Z"}}}